Prescott, AZ

12:07 AM MST on October 15, 2019 (GMT -0700)
Love

Weather History for KPRC - August, 2019

Change the Weather History Date:

Monday, August 12, 2019

  Actual Average Record
Temperature  
Mean Temperature 76 °F 74 °F  
Max Temperature 89 °F 87 °F 99 °F (1996)
Min Temperature 62 °F 61 °F 49 °F (1974)
Degree Days  
Heating Degree Days 0    
Month to date heating degree days 0  
Since 1 July heating degree days 0  
Cooling Degree Days 11    
Month to date cooling degree days 149  
Year to date cooling degree days 717  
Growing Degree Days 26 (Base 50)    
Moisture  
Dew Point 37 °F    
Average Humidity 30    
Maximum Humidity 63    
Minimum Humidity 10    
Precipitation  
Precipitation 0.00 in 0.08 in 1.84 in (1948)
Month to date precipitation 0.30 1.08  
Year to date precipitation 8.11 8.12  
Sea Level Pressure  
Sea Level Pressure 29.95 in    
Wind  
Wind Speed 9 mph (SSW)    
Max Wind Speed 18 mph    
Max Gust Speed 23 mph    
Visibility 10 miles    
Events      
T = Trace of Precipitation, MM = Missing Value Source: NWS Daily Summary

Daily Weather History Graph

Daily Weather History Graph

Search for Another Location

Airport or City:

Astronomy

Aug. 12, 2019 Rise Set
Actual Time 5:47 AM MST 7:20 PM MST
Civil Twilight 5:21 AM MST 7:47 PM MST
Nautical Twilight 4:48 AM MST 8:20 PM MST
Astronomical Twilight 4:14 AM MST 8:53 PM MST
Moon 5:48 PM MST (8/12) 3:06 AM MST (8/12)
Length of Visible Light 14h 26m
Length of Day
13h 33m
Waxing Gibbous, 93% of the Moon is Illuminated
Aug 12
Waxing Gibbous
Aug 15
Full
Aug 23
Last Quarter
Aug 30
New
Sep 5
First Quarter

Hourly Weather History & Observations

Time (MST) Temp. Dew Point Humidity Pressure Visibility Wind Dir Wind Speed Gust Speed Precip Events Conditions
12:53 AM 66.9 °F 50.0 °F 54% 29.92 in 10.0 mi Calm Calm - N/A   Clear
1:53 AM 64.9 °F 51.1 °F 61% 29.92 in 10.0 mi South 4.6 mph - N/A   Clear
2:53 AM 64.9 °F 51.1 °F 61% 29.93 in 10.0 mi South 6.9 mph - N/A   Clear
3:53 AM 64.9 °F 50.0 °F 58% 29.93 in 10.0 mi SSW 6.9 mph - N/A   Clear
4:53 AM 64.0 °F 50.0 °F 60% 29.94 in 10.0 mi SSW 8.1 mph - N/A   Clear
5:53 AM 63.0 °F 48.9 °F 60% 29.97 in 10.0 mi SSW 9.2 mph - N/A   Partly Cloudy
6:53 AM 64.9 °F 50.0 °F 58% 29.99 in 10.0 mi South 6.9 mph - N/A   Partly Cloudy
7:53 AM 72.0 °F 51.1 °F 48% 29.99 in 10.0 mi South 5.8 mph - N/A   Partly Cloudy
8:53 AM 80.1 °F 30.9 °F 17% 29.97 in 10.0 mi South 10.4 mph - N/A   Clear
9:53 AM 82.0 °F 36.0 °F 19% 29.98 in 10.0 mi SW 10.4 mph - N/A   Clear
10:53 AM 84.0 °F 36.0 °F 18% 29.99 in 10.0 mi Variable 6.9 mph - N/A   Clear
11:53 AM 84.9 °F 42.1 °F 22% 29.98 in 10.0 mi South 13.8 mph 20.7 mph N/A   Clear
12:53 PM 86.0 °F 35.1 °F 16% 29.97 in 10.0 mi South 8.1 mph 18.4 mph N/A   Clear
1:53 PM 87.1 °F 33.1 °F 15% 29.96 in 10.0 mi SSW 12.7 mph 23.0 mph N/A   Clear
2:53 PM 88.0 °F 32.0 °F 14% 29.93 in 10.0 mi SSE 11.5 mph - N/A   Clear
3:53 PM 88.0 °F 30.0 °F 12% 29.91 in 10.0 mi South 6.9 mph 17.3 mph N/A   Clear
4:53 PM 88.0 °F 28.0 °F 12% 29.91 in 10.0 mi SW 11.5 mph 16.1 mph N/A   Clear
5:53 PM 87.1 °F 24.1 °F 10% 29.91 in 10.0 mi SW 10.4 mph - N/A   Clear
6:53 PM 84.0 °F 25.0 °F 12% 29.91 in 10.0 mi WSW 9.2 mph - N/A   Clear
7:53 PM 79.0 °F 25.0 °F 14% 29.91 in 10.0 mi SW 6.9 mph - N/A   Clear
8:53 PM 73.0 °F 28.0 °F 19% 29.93 in 10.0 mi SSW 9.2 mph - N/A   Clear
9:53 PM 71.1 °F 28.0 °F 20% 29.95 in 10.0 mi South 9.2 mph - N/A   Clear
10:53 PM 69.1 °F 28.9 °F 22% 29.95 in 10.0 mi South 8.1 mph - N/A   Clear
11:53 PM 66.9 °F 30.9 °F 26% 29.96 in 10.0 mi South 8.1 mph - N/A   Clear